Regional Weather Roundup
Issued by NWS

Home | Current Version | Previous Version | Text Only | Print | Product List | Glossary On
Versions: 1 2 3 4 5 6 7 8 9 10 11 12 13 14 15 16 17 18 19 20 21 22 23 24 25 26 27 28
000
ASUS46 KPQR 250910
RWROR

OREGON REGIONAL WEATHER ROUNDUP
NATIONAL WEATHER SERVICE PORTLAND OR
200 AM PDT SUN JUN 25 2017

NOTE: "FAIR" INDICATES FEW OR NO CLOUDS BELOW 12,000 FEET WITH
NO SIGNIFICANT WEATHER AND/OR OBSTRUCTIONS TO VISIBILITY.

ORZ001>013-251000-
NORTHWEST OREGON


CITY           SKY/WX    TMP DP  RH WIND       PRES   REMARKS
ASTORIA        CLEAR     63  58  83 E5        29.89S
NEWPORT        CLEAR     52  50  93 S7        29.95R
PORTLAND       CLEAR     71  58  63 CALM      29.89S
VANCOUVER WA   CLEAR     71  59  65 VRB3      29.89S
SCAPPOOSE      CLEAR     64  53  67 W5        29.89S
HILLSBORO      CLEAR     61  54  77 NW6       29.88F
AURORA         CLEAR     73  43  33 N6        29.87F
MCMINNVILLE    CLEAR     72  46  39 NW6       29.87F
SALEM          CLEAR     67  48  50 CALM      29.86S
CORVALLIS      CLEAR     63  52  67 CALM      29.87F
EUGENE         CLEAR     64  57  78 S5        29.87S
$$

ORZ021-028-251000-
SOUTHWEST OREGON


CITY           SKY/WX    TMP DP  RH WIND       PRES   REMARKS
NORTH BEND     CLEAR     54  52  94 S3        29.93F
BROOKINGS      CLEAR     53  51  93 CALM      29.93S
ROSEBURG       CLEAR     72  56  57 CALM      29.87S
SEXTON SUMMIT  CLEAR     79  39  23 E3        30.06F
GRANTS PASS    FAIR      70  54  56 CALM      29.92S
MEDFORD        CLEAR     74  56  53 CALM      29.90R
$$

ORZ014>016-041-251000-
COLUMBIA GORGE


CITY           SKY/WX    TMP DP  RH WIND       PRES   REMARKS
TROUTDALE      CLEAR     80  43  26 E15       29.88S
HOOD RIVER     CLEAR     59  46  63 S3        30.02S
THE DALLES     CLEAR     63  46  54 E6        30.00S
$$

ORZ029>031-041-044-049-050-061>064-502-503-505>511-251000-
EASTERN OREGON


CITY           SKY/WX    TMP DP  RH WIND       PRES   REMARKS
MADRAS         CLEAR     54  36  50 SE6       30.12S
REDMOND        CLEAR     54  33  45 SE3       30.12S
BEND           CLEAR    N/A N/A N/A CALM      30.15F
PRINEVILLE     CLEAR     57  34  41 S6        30.14S
KLAMATH FALLS  CLEAR     70  45  40 NW13      30.11S
LAKEVIEW       CLEAR     63  33  32 N10       30.18S
HERMISTON      CLEAR     57  47  69 SE6       30.01S
PENDLETON      CLEAR     62  45  53 SE12      30.05S
JOHN DAY       CLEAR     61  39  43 CALM      30.17S
MEACHAM        CLEAR     45  39  79 CALM      30.19S
LA GRANDE      CLEAR     55  21  26 CALM      30.14S
BAKER CITY     CLEAR     48  44  86 CALM      30.17F
BURNS          CLEAR     50  35  56 W5        30.19R
ROME             N/A     53  33  46 NE3       30.17S
ONTARIO        CLEAR     61  44  53 SW3       30.09R
$$




USA.gov is the U.S. government's official web portal to all federal, state and local government web resources and services.